Zurück zum Katalog

FENGYUN 1C DEB

AktivPO
NORAD 31341·DEBRIS·🇨🇳 China

Gestartet May 10, 1999 von Taiyuan Satellite Launch Center

Loading…

Nächste Überflüge (nächste 24 Stunden)

TLE

AktuellSource: Space-Track

Epoche: Sep 14, 2026, 11:56 UTC

1 31341U 99025BQV 26257.49731728  .00003255  00000-0  74176-3 0  9993
2 31341  99.5346 342.4211 0051025 245.9100 125.6568 14.55913052 16286

Verfolge FENGYUN 1C DEB in Echtzeit mit AllMySat

Download on the App Store